EW7906 Weather Reports


time (UTC)temp
C
wind
direction
speed
KPH
gust
KPH
rain 1hr
cm
rain 24hr
cm
rain mn
cm
humidity
%
barometer
mb
20260904164328 62 163 0.0 12.9 0.00 0.00 0.00 100 1015.0
20260904163826 62 192 4.8 12.9 0.00 0.00 0.00 100 1015.0
20260904163327 62 172 0.0 6.4 0.00 0.00 0.00 100 1015.0
20260904162757 62 172 3.2 9.7 0.00 0.00 0.00 100 1015.0
20260904162513 62 133 4.8 12.9 0.00 0.00 0.00 100 1015.0
20260904161742 62 151 3.2 12.9 0.00 0.00 0.00 100 1015.0
20260904161237 62 125 3.2 11.3 0.00 0.00 0.00 100 1015.0
20260904160738 62 123 3.2 11.3 0.00 0.00 0.00 100 1014.9
20260904160232 62 229 3.2 11.3 0.00 0.00 0.00 100 1014.9
20260904155731 62 243 3.2 14.5 0.00 0.00 0.00 100 1015.0
20260904155225 62 216 3.2 14.5 0.00 0.00 0.00 100 1014.9
20260904154726 62 125 1.6 14.5 0.00 0.00 0.00 100 1014.9
20260904154225 62 136 0.0 12.9 0.00 0.00 0.00 100 1014.8
20260904153725 62 212 3.2 9.7 0.00 0.00 0.00 100 1014.9
20260904153213 62 147 0.0 1.6 0.00 0.00 0.00 100 1014.8
20260904152651 62 147 0.0 12.9 0.00 0.00 0.00 100 1014.8
20260904152419 62 182 4.8 12.9 0.00 0.00 0.00 100 1014.8
20260904151648 62 191 3.2 11.3 0.00 0.00 0.00 100 1014.7
20260904151419 62 140 0.0 12.9 0.00 0.00 0.00 100 1014.7
20260904150644 62 133 0.0 12.9 0.00 0.00 0.00 100 1014.8
20260904150415 62 178 8.0 19.3 0.00 0.00 0.00 100 1014.7
20260904145643 62 175 3.2 19.3 0.00 0.00 0.00 100 1014.7
20260904145132 62 239 0.0 14.5 0.00 0.00 0.00 100 1014.7
20260904144629 62 225 6.4 14.5 0.00 0.00 0.00 100 1014.7
20260904144129 62 165 0.0 9.7 0.00 0.00 0.00 100 1014.7
20260904143623 62 172 0.0 6.4 0.00 0.00 0.00 100 1014.7
20260904143110 62 164 1.6 8.0 0.00 0.00 0.00 100 1014.7
20260904142611 62 163 0.0 9.7 0.00 0.00 0.00 100 1014.7
20260904142335 62 163 3.2 11.3 0.00 0.00 0.00 100 1014.8
20260904141600 62 247 0.0 11.3 0.00 0.00 0.00 100 1014.8
20260904141058 62 192 1.6 6.4 0.00 0.00 0.00 100 1014.7
20260904140551 62 112 0.0 4.8 0.00 0.00 0.00 100 1014.8
20260904140048 62 112 0.0 4.8 0.00 0.00 0.00 100 1014.8
20260904135540 62 112 0.0 0.0 0.00 0.00 0.00 100 1014.8
20260904135308 62 112 0.0 0.0 0.00 0.00 0.00 1 1014.8
20260904134534 62 112 0.0 0.0 0.00 0.00 0.00 1 1014.7
20260904134025 62 112 0.0 0.0 0.00 0.00 0.00 2 1014.8
20260904133522 62 112 0.0 0.0 0.00 0.00 0.00 2 1014.8
20260904133020 62 112 0.0 0.0 0.00 0.00 0.00 3 1014.8
20260904132519 62 112 0.0 0.0 0.00 0.00 0.00 3 1014.8
20260904132018 62 112 0.0 0.0 0.00 0.00 0.00 3 1014.8
20260904131507 62 112 0.0 0.0 0.00 0.00 0.00 3 1014.8
20260904131009 62 112 0.0 0.0 0.00 0.00 0.00 2 1014.7
20260904131005 62 112 0.0 0.0 0.00 0.00 0.00 1 1014.7
20260904130001 62 112 0.0 0.0 0.00 0.00 0.00 1 1014.7
20260904125456 62 112 0.0 0.0 0.00 0.00 0.00 100 1014.7
20260904125221 62 112 0.0 0.0 0.00 0.00 0.00 100 1014.7
20260904124439 62 112 0.0 0.0 0.00 0.00 0.00 100 1014.6
20260904123937 62 112 0.0 0.0 0.00 0.00 0.00 100 1014.5
20260904123428 62 112 0.0 0.0 0.00 0.00 0.00 100 1014.4
20260904122907 62 112 0.0 0.0 0.00 0.00 0.00 100 1014.3
20260904122629 62 112 0.0 0.0 0.00 0.00 0.00 100 1014.3
20260904121852 62 112 0.0 4.8 0.00 0.00 0.00 100 1014.2
20260904121349 62 112 0.0 9.7 0.00 0.00 0.00 100 1014.0
20260904121343 62 136 0.0 9.7 0.00 0.00 0.00 100 1013.9
20260904120341 62 153 0.0 9.7 0.00 0.00 0.00 100 1013.8
20260904120115 62 136 0.0 11.3 0.00 0.00 0.00 100 1013.8
20260904115331 62 136 1.6 11.3 0.00 0.00 0.00 100 1013.6
20260904114829 62 198 3.2 11.3 0.00 0.00 0.00 100 1013.5
20260904114315 62 174 0.0 8.0 0.00 0.00 0.00 100 1013.5
20260904114045 62 142 0.0 11.3 0.00 0.00 0.00 100 1013.4
20260904113526 62 142 0.0 11.3 0.00 0.00 0.00 1 1013.4
20260904112743 62 167 1.6 8.0 0.00 0.00 0.00 2 1013.4
20260904112243 62 122 1.6 4.8 0.00 0.00 0.00 2 1013.4
20260904111737 62 122 0.0 0.0 0.00 0.00 0.00 3 1013.3
20260904111213 62 122 0.0 0.0 0.00 0.00 0.00 3 1013.2
20260904110706 62 122 0.0 0.0 0.00 0.00 0.00 3 1013.2
20260904110432 62 122 0.0 0.0 0.00 0.00 0.00 2 1013.2
20260904105701 62 122 0.0 0.0 0.00 0.00 0.00 2 1013.2
20260904105144 62 122 0.0 0.0 0.00 0.00 0.00 1 1013.2
20260904104641 62 122 0.0 0.0 0.00 0.00 0.00 100 1013.2
20260904104135 62 122 0.0 0.0 0.00 0.00 0.00 100 1013.1
20260904103625 62 122 0.0 0.0 0.00 0.00 0.00 100 1013.1
20260904103122 62 122 0.0 0.0 0.00 0.00 0.00 100 1013.0
20260904102616 62 122 0.0 0.0 0.00 0.00 0.00 100 1013.0
20260904102105 62 122 0.0 0.0 0.00 0.00 0.00 100 1013.0
20260904101601 62 122 0.0 0.0 0.00 0.00 0.00 100 1012.9
20260904101101 62 122 0.0 0.0 0.00 0.00 0.00 100 1012.9
20260904100544 62 122 0.0 6.4 0.00 0.00 0.00 100 1013.0
20260904100314 62 122 0.0 8.0 0.00 0.00 0.00 100 1012.9
20260904095542 62 146 0.0 8.0 0.00 0.00 0.00 100 1012.8
20260904095024 62 163 0.0 0.0 0.00 0.00 0.00 100 1012.8
20260904094757 62 163 0.0 0.0 0.00 0.00 0.00 100 1012.8
20260904094017 62 163 0.0 9.7 0.00 0.00 0.00 100 1012.6
20260904093441 62 163 3.2 9.7 0.00 0.00 0.00 100 1012.6
20260904092939 62 149 0.0 0.0 0.00 0.00 0.00 100 1012.6
20260904092418 62 149 0.0 12.9 0.00 0.00 0.00 100 1012.8
20260904091916 62 149 0.0 12.9 0.00 0.00 0.00 100 1012.8
20260904091401 62 163 0.0 8.0 0.00 0.00 0.00 100 1012.6
20260904090902 62 113 0.0 8.0 0.00 0.00 0.00 100 1012.6
20260904090358 62 161 0.0 14.5 0.00 0.00 0.00 100 1012.6
20260904085839 62 119 0.0 19.3 0.00 0.00 0.00 100 1012.8
20260904085319 62 160 0.0 17.7 0.00 0.00 0.00 100 1012.8
20260904084819 62 184 1.6 11.3 0.00 0.00 0.00 100 1012.8
20260904084302 62 196 1.6 9.7 0.00 0.00 0.00 100 1012.8
20260904083803 62 230 1.6 9.7 0.00 0.00 0.00 100 1012.8
20260904083259 62 106 0.0 14.5 0.00 0.00 0.00 100 1012.8
20260904082756 62 132 0.0 14.5 0.00 0.00 0.00 100 1012.8
20260904082249 62 147 0.0 11.3 0.00 0.00 0.00 100 1012.8
20260904081743 62 147 0.0 11.3 0.00 0.00 0.00 100 1012.9
20260904081241 62 209 4.8 8.0 0.00 0.00 0.00 100 1012.9
20260904081011 62 156 0.0 14.5 0.00 0.00 0.00 100 1013.0
20260904080226 62 136 3.2 16.1 0.00 0.00 0.00 100 1012.9
20260904075725 62 135 3.2 16.1 0.00 0.00 0.00 100 1012.9
20260904075222 62 126 4.8 16.1 0.00 0.00 0.00 100 1012.9
20260904074723 62 147 6.4 19.3 0.00 0.00 0.00 100 1012.9
20260904074450 62 150 8.0 19.3 0.00 0.00 0.00 100 1013.0
20260904073718 62 150 6.4 11.3 0.00 0.00 0.00 100 1013.0
20260904073218 62 180 6.4 16.1 0.00 0.00 0.00 100 1013.0
20260904072707 62 182 1.6 14.5 0.00 0.00 0.00 100 1013.0
20260904072208 62 185 3.2 11.3 0.00 0.00 0.00 100 1013.1
20260904071705 62 146 6.4 11.3 0.00 0.00 0.00 100 1013.1
20260904071206 62 127 6.4 11.3 0.00 0.00 0.00 100 1013.2
20260904070657 62 154 1.6 14.5 0.00 0.00 0.00 100 1013.2
20260904070427 62 115 4.8 14.5 0.00 0.00 0.00 100 1013.2
20260904065657 62 181 1.6 12.9 0.00 0.00 0.00 100 1013.2
20260904065149 62 172 6.4 12.9 0.00 0.00 0.00 100 1013.2
20260904064650 62 177 9.7 12.9 0.00 0.00 0.00 100 1013.3
20260904064148 62 170 4.8 14.5 0.00 0.00 0.00 100 1013.4
20260904063646 62 161 8.0 14.5 0.00 0.00 0.00 100 1013.3
20260904063145 62 191 4.8 14.5 0.00 0.00 0.00 100 1013.3
20260904062642 62 164 0.0 14.5 0.00 0.00 0.00 100 1013.2
20260904062141 62 154 4.8 14.5 0.00 0.00 0.00 100 1013.1
20260904061641 62 123 1.6 17.7 0.00 0.00 0.00 100 1013.2
20260904061133 62 174 8.0 17.7 0.00 0.00 0.00 100 1013.2
20260904060633 62 184 1.6 17.7 0.00 0.00 0.00 100 1013.2
20260904060131 62 181 6.4 17.7 0.00 0.00 0.00 100 1013.3
20260904055626 62 199 6.4 17.7 0.00 0.00 0.00 100 1013.3
20260904055126 62 140 4.8 14.5 0.00 0.00 0.00 100 1013.2
20260904054626 62 165 6.4 19.3 0.00 0.00 0.00 100 1013.2
20260904054356 62 147 4.8 19.3 0.00 0.00 0.00 100 1013.2
20260904053619 62 120 8.0 17.7 0.00 0.00 0.00 100 1013.1
20260904053118 62 223 0.0 24.1 0.00 0.00 0.00 100 1013.0
20260904052620 62 194 11.3 24.1 0.00 0.00 0.00 100 1013.0
20260904052120 62 161 8.0 16.1 0.00 0.00 0.00 100 1012.9
20260904052104 62 184 9.7 14.5 0.00 0.00 0.00 100 1012.8
20260904051332 62 201 1.6 19.3 0.00 0.00 0.00 100 1012.8
20260904050602 62 151 6.4 19.3 0.00 0.00 0.00 100 1012.8
20260904050101 62 160 0.0 19.3 0.00 0.00 0.00 100 1012.8
20260904045601 62 150 6.4 19.3 0.00 0.00 0.00 100 1012.8
20260904045057 62 147 3.2 17.7 0.00 0.00 0.00 100 1012.8
20260904044829 62 160 0.0 14.5 0.00 0.00 0.00 100 1012.9
20260904044056 62 182 0.0 14.5 0.00 0.00 0.00 100 1012.8
20260904043544 62 101 4.8 14.5 0.00 0.00 0.00 100 1012.8
20260904043044 62 150 1.6 16.1 0.00 0.00 0.00 100 1012.9
20260904042543 62 158 3.2 16.1 0.00 0.00 0.00 100 1012.8
20260904042315 62 177 8.0 14.5 0.00 0.00 0.00 100 1012.8
20260904041543 62 167 4.8 12.9 0.00 0.00 0.00 100 1012.8
20260904041030 62 171 6.4 16.1 0.00 0.00 0.00 100 1012.9
20260904040515 62 143 6.4 16.1 0.00 0.00 0.00 100 1012.8
20260904040013 62 140 0.0 12.9 0.00 0.00 0.00 100 1012.6
20260904035511 62 167 1.6 16.1 0.00 0.00 0.00 100 1012.5
20260904034508 62 170 8.0 17.7 0.00 0.00 0.00 100 1012.5
20260904034008 62 158 0.0 12.9 0.00 0.00 0.00 100 1012.5
20260904033507 62 115 4.8 12.9 0.00 0.00 0.00 100 1012.6
20260904033001 62 135 8.0 16.1 0.00 0.00 0.00 100 1012.5
20260904032729 62 175 9.7 19.3 0.00 0.00 0.00 100 1012.5
20260904031956 62 111 6.4 19.3 0.00 0.00 0.00 100 1012.5
20260904031456 62 144 4.8 16.1 0.00 0.00 0.00 100 1012.4
20260904030957 62 139 3.2 14.5 0.00 0.00 0.00 100 1012.4
20260904030456 62 143 8.0 17.7 0.00 0.00 0.00 100 1012.4
20260904030225 62 115 9.7 20.9 0.00 0.00 0.00 100 1012.3
20260904025459 62 161 9.7 16.1 0.00 0.00 0.00 100 1012.3
20260904025455 62 172 11.3 20.9 0.00 0.00 0.00 100 1012.4
20260904024455 62 142 8.0 14.5 0.00 0.00 0.00 100 1012.2
20260904023954 62 154 6.4 16.1 0.00 0.00 0.00 100 1012.3
20260904023454 62 164 8.0 24.1 0.00 0.00 0.00 100 1012.1
20260904022956 62 154 12.9 24.1 0.00 0.00 0.00 100 1012.0
20260904022454 62 165 3.2 17.7 0.00 0.00 0.00 100 1011.9
20260904021953 62 118 8.0 17.7 0.00 0.00 0.00 100 1011.9
20260904021725 62 163 8.0 16.1 0.00 0.00 0.00 100 1011.9
20260904020952 62 147 8.0 17.7 0.00 0.00 0.00 100 1011.8
20260904020452 62 182 3.2 17.7 0.00 0.00 0.00 100 1011.9
20260904020222 62 130 6.4 16.1 0.00 0.00 0.00 100 1011.9
20260904015451 62 170 6.4 20.9 0.00 0.00 0.00 100 1011.7
20260904014952 62 171 4.8 20.9 0.00 0.00 0.00 100 1011.6
20260904014452 62 157 9.7 16.1 0.00 0.00 0.00 100 1011.7
20260904013948 62 135 3.2 19.3 0.00 0.00 0.00 100 1011.6
20260904013449 62 160 12.9 19.3 0.00 0.00 0.00 100 1011.5
20260904012948 62 167 4.8 16.1 0.00 0.00 0.00 100 1011.4
20260904012454 62 142 6.4 19.3 0.00 0.00 0.00 100 1011.2
20260904012449 62 157 6.4 16.1 0.00 0.00 0.00 100 1011.4
20260904011447 62 147 8.0 22.5 0.00 0.00 0.00 100 1011.1
20260904010947 62 142 4.8 22.5 0.00 0.00 0.00 100 1011.1
20260904010447 62 202 6.4 17.7 0.00 0.00 0.00 100 1011.1
20260904010217 62 177 6.4 16.1 0.00 0.00 0.00 100 1011.2
20260904005716 62 154 8.0 22.5 0.00 0.00 0.00 100 1011.2
20260904004946 62 158 8.0 22.5 0.00 0.00 0.00 100 1011.1
20260904004444 62 135 4.8 19.3 0.00 0.00 0.00 100 1011.2
20260904004216 62 147 6.4 19.3 0.00 0.00 0.00 100 1011.3
20260904003443 62 158 6.4 17.7 0.00 0.00 0.00 100 1011.2
20260904002941 62 125 9.7 19.3 0.00 0.00 0.00 100 1011.2
20260904002442 62 143 6.4 20.9 0.00 0.00 0.00 100 1011.1
20260904001942 62 146 11.3 20.9 0.00 0.00 0.00 100 1011.1
20260904001442 63 165 8.0 17.7 0.00 0.00 0.00 100 1011.0
20260904000940 63 161 8.0 17.7 0.00 0.00 0.00 100 1011.0
20260904000441 63 143 6.4 17.7 0.00 0.00 0.00 100 1010.9
20260904000212 63 123 9.7 20.9 0.00 0.00 0.00 100 1010.9
20260903235438 63 140 9.7 20.9 0.00 0.00 0.00 100 1010.8
20260903234939 63 129 8.0 20.9 0.00 0.00 0.00 100 1010.8
20260903234438 63 205 9.7 20.9 0.00 0.00 0.00 100 1010.8
20260903234209 63 151 8.0 22.5 0.00 0.00 0.00 100 1010.9
20260903233443 63 174 8.0 17.7 0.00 0.00 0.00 100 1010.8
20260903233439 63 150 9.7 22.5 0.00 0.00 0.00 100 1010.8
20260903232440 63 120 9.7 20.9 0.00 0.00 0.00 100 1010.7
20260903231938 63 133 9.7 20.9 0.00 0.00 0.00 100 1010.6
20260903231436 63 130 6.4 17.7 0.00 0.00 0.00 100 1010.6
20260903231207 63 187 9.7 20.9 0.00 0.00 0.00 100 1010.5
20260903230707 63 123 6.4 20.9 0.00 0.00 0.00 100 1010.4
20260903225936 63 130 9.7 24.1 0.00 0.00 0.00 100 1010.3
20260903225435 63 61 12.9 24.1 0.00 0.00 0.00 100 1010.3
20260903224934 64 163 4.8 19.3 0.00 0.00 0.00 100 1010.2
20260903224434 64 132 9.7 24.1 0.00 0.00 0.00 100 1010.0
20260903223935 64 160 9.7 20.9 0.00 0.00 0.00 100 1009.7
20260903223931 64 118 11.3 24.1 0.00 0.00 0.00 100 1009.9
20260903223202 64 160 8.0 20.9 0.00 0.00 0.00 100 1009.7
20260903222430 64 161 8.0 22.5 0.00 0.00 0.00 100 1009.9
20260903221930 64 127 8.0 22.5 0.00 0.00 0.00 100 1009.9
20260903221430 64 150 9.7 20.9 0.00 0.00 0.00 100 1009.7
20260903220929 64 158 6.4 20.9 0.00 0.00 0.00 100 1009.7
20260903220430 64 144 8.0 19.3 0.00 0.00 0.00 100 1009.9
20260903215926 64 101 9.7 19.3 0.00 0.00 0.00 100 1009.9
20260903215424 64 158 8.0 14.5 0.00 0.00 0.00 100 1009.9
20260903215156 64 170 6.4 17.7 0.00 0.00 0.00 100 1009.9
20260903214425 64 150 12.9 17.7 0.00 0.00 0.00 100 1009.9
20260903213924 64 108 8.0 12.9 0.00 0.00 0.00 100 1010.0
20260903213655 65 106 0.0 20.9 0.00 0.00 0.00 100 1010.0
20260903212916 65 189 8.0 20.9 0.00 0.00 0.00 100 1010.2
20260903212416 65 130 8.0 17.7 0.00 0.00 0.00 100 1010.2
20260903212146 64 116 8.0 17.7 0.00 0.00 0.00 100 1010.2
20260903211412 64 167 8.0 17.7 0.00 0.00 0.00 100 1010.2
20260903210903 64 143 8.0 17.7 0.00 0.00 0.00 100 1010.2
20260903210401 65 154 1.6 16.1 0.00 0.00 0.00 100 1010.4
20260903205902 65 157 0.0 12.9 0.00 0.00 0.00 100 1010.4
20260903205401 65 115 4.8 11.3 0.00 0.00 0.00 100 1010.5
20260903204903 64 129 6.4 11.3 0.00 0.00 0.00 100 1010.5
20260903204632 64 140 3.2 12.9 0.00 0.00 0.00 100 1010.5
20260903204356 64 140 4.8 12.9 0.00 0.00 0.00 100 1010.5
20260903203330 65 129 4.8 11.3 0.00 0.00 0.00 100 1010.7
20260903202830 64 26 3.2 9.7 0.00 0.00 0.00 100 1010.8
20260903202330 65 104 6.4 9.7 0.00 0.00 0.00 100 1010.9
20260903201829 65 160 0.0 14.5 0.00 0.00 0.00 100 1010.9
20260903201329 65 123 0.0 14.5 0.00 0.00 0.00 100 1011.0
20260903200825 65 168 6.4 14.5 0.00 0.00 0.00 100 1010.9
20260903200326 65 123 0.0 9.7 0.00 0.00 0.00 100 1011.0
20260903195819 65 147 0.0 14.5 0.00 0.00 0.00 100 1011.1
20260903195316 65 189 3.2 14.5 0.00 0.00 0.00 100 1011.2
20260903194815 64 187 6.4 11.3 0.00 0.00 0.00 100 1011.2
20260903194316 64 168 0.0 17.7 0.00 0.00 0.00 100 1011.2
20260903193811 64 168 4.8 17.7 0.00 0.00 0.00 100 1011.3
20260903193303 64 109 6.4 16.1 0.00 0.00 0.00 100 1011.4
20260903192803 64 109 3.2 16.1 0.00 0.00 0.00 100 1011.4
20260903192529 65 150 6.4 11.3 0.00 0.00 0.00 100 1011.5
20260903191757 65 209 0.0 14.5 0.00 0.00 0.00 100 1011.6
20260903191257 65 184 6.4 16.1 0.00 0.00 0.00 100 1011.8
20260903190756 65 160 6.4 16.1 0.00 0.00 0.00 100 1011.8
20260903190257 65 97 3.2 14.5 0.00 0.00 0.00 100 1011.9
20260903185756 65 136 3.2 14.5 0.00 0.00 0.00 100 1012.0
20260903185250 65 168 3.2 14.5 0.00 0.00 0.00 100 1012.1
20260903184746 65 154 1.6 14.5 0.00 0.00 0.00 100 1012.1
20260903184247 65 146 0.0 12.9 0.00 0.00 0.00 100 1012.2
20260903183743 65 189 3.2 8.0 0.00 0.00 0.00 100 1012.3
20260903183243 64 189 3.2 9.7 0.00 0.00 0.00 100 1012.5
20260903182743 64 151 0.0 9.7 0.00 0.00 0.00 100 1012.6
20260903182240 64 156 6.4 9.7 0.00 0.00 0.00 100 1012.8
20260903181723 64 136 1.6 11.3 0.00 0.00 0.00 100 1012.9
20260903181210 64 147 6.4 11.3 0.00 0.00 0.00 100 1013.0
20260903180707 64 168 0.0 20.9 0.00 0.00 0.00 100 1013.0
20260903180201 65 146 6.4 22.5 0.00 0.00 0.00 100 1013.0
20260903175701 65 122 8.0 16.1 0.00 0.00 0.00 100 1012.9
20260903175201 64 164 3.2 14.5 0.00 0.00 0.00 100 1013.1
20260903174700 64 156 1.6 16.1 0.00 0.00 0.00 100 1013.1
20260903174200 65 180 4.8 16.1 0.00 0.00 0.00 100 1013.1
20260903173700 64 154 4.8 14.5 0.00 0.00 0.00 100 1013.2
20260903173200 64 188 9.7 14.5 0.00 0.00 0.00 100 1013.2
20260903172657 64 140 4.8 16.1 0.00 0.00 0.00 100 1013.2
20260903172156 64 203 9.7 17.7 0.00 0.00 0.00 100 1013.4
20260903171656 63 106 4.8 17.7 0.00 0.00 0.00 100 1013.4
20260903171155 63 178 4.8 16.1 0.00 0.00 0.00 100 1013.4
20260903170654 63 165 9.7 16.1 0.00 0.00 0.00 100 1013.4
20260903170154 63 185 8.0 14.5 0.00 0.00 0.00 100 1013.5
20260903165653 63 147 6.4 12.9 0.00 0.00 0.00 100 1013.5
20260903165153 63 133 3.2 14.5 0.00 0.00 0.00 100 1013.5
20260903164655 63 233 1.6 16.1 0.00 0.00 0.00 100 1013.5
20260903164651 63 192 8.0 16.1 0.00 0.00 0.00 100 1013.5